This is the latest recevied weather packets stored in our database for station/object LX1CU-13. If no packets are shown the sender has not sent any weather packets the latest 10 day(s).
| Time | Temp. | Humidity | Pressure | Rain* | Wind** | Luminosity | Snow |
|---|---|---|---|---|---|---|---|
| 1778063910 | 13.33° C | 76% | 1002.9 hPa | 0 mm | - | - | - |
| 1778063610 | 13.89° C | 76% | 1002.9 hPa | 0 mm | - | - | - |
| 1778063310 | 13.89° C | 77% | 1002.8 hPa | 0 mm | - | - | - |
| 1778063010 | 13.89° C | 78% | 1002.9 hPa | 0 mm | - | - | - |
| 1778062710 | 13.89° C | 79% | 1002.9 hPa | 0 mm | - | - | - |
| 1778062410 | 13.33° C | 79% | 1002.8 hPa | 0 mm | - | - | - |
| 1778062110 | 13.33° C | 80% | 1002.7 hPa | 0 mm | - | - | - |
| 1778061810 | 12.78° C | 80% | 1002.7 hPa | 0 mm | - | - | - |
| 1778061510 | 12.78° C | 81% | 1002.7 hPa | 0 mm | - | - | - |
| 1778061210 | 12.78° C | 80% | 1002.7 hPa | 0 mm | - | - | - |
| 1778060910 | 12.78° C | 80% | 1002.7 hPa | 0 mm | - | - | - |
| 1778060610 | 12.78° C | 80% | 1002.7 hPa | 0 mm | - | - | - |
| 1778060310 | 12.78° C | 81% | 1002.6 hPa | 0 mm | - | - | - |
| 1778060010 | 12.78° C | 81% | 1002.4 hPa | 0 mm | - | - | - |
| 1778059710 | 12.78° C | 81% | 1002.5 hPa | 0 mm | - | - | - |
| 1778059410 | 12.78° C | 82% | 1002.5 hPa | 0 mm | - | - | - |
| 1778059110 | 12.78° C | 82% | 1002.4 hPa | 0 mm | - | - | - |
| 1778058810 | 12.78° C | 82% | 1002.4 hPa | 0 mm | - | - | - |
| 1778058510 | 12.78° C | 83% | 1002.4 hPa | 0 mm | - | - | - |
| 1778058210 | 12.78° C | 83% | 1002.4 hPa | 0 mm | - | - | - |
| 1778057910 | 12.22° C | 83% | 1002.2 hPa | 0 mm | - | - | - |
| 1778057611 | 12.78° C | 83% | 1002.2 hPa | 0 mm | - | - | - |
| 1778057311 | 12.22° C | 83% | 1002.1 hPa | 0 mm | - | - | - |
| 1778057010 | 12.22° C | 83% | 1002 hPa | 0 mm | - | - | - |
| 1778056710 | 12.78° C | 84% | 1002 hPa | 0 mm | - | - | - |
* Rain latest hour (hover to see other rain measurements)
** Current wind speed in m/s (hover to see current wind gust speed)